Year,Month,Day,Hour,Minute,Value (Times are PST for temperature in C)
2017,05,04,00,00,13.10
2017,05,04,00,01,13.10
2017,05,04,00,02,13.10
2017,05,04,00,03,13.10
2017,05,04,00,04,13.10
2017,05,04,00,05,13.10
2017,05,04,00,06,13.10
2017,05,04,00,07,13.10
2017,05,04,00,08,13.10
2017,05,04,00,09,13.10
2017,05,04,00,10,13.10
2017,05,04,00,11,13.10
2017,05,04,00,12,13.10
2017,05,04,00,13,13.10
2017,05,04,00,14,13.10
2017,05,04,00,15,13.00
2017,05,04,00,16,13.00
2017,05,04,00,17,13.10
2017,05,04,00,18,13.10
2017,05,04,00,19,13.00
2017,05,04,00,20,13.00
2017,05,04,00,21,13.00
2017,05,04,00,22,13.00
2017,05,04,00,23,13.00
2017,05,04,00,24,13.00
2017,05,04,00,25,13.00
2017,05,04,00,26,13.00
2017,05,04,00,27,13.00
2017,05,04,00,28,13.00
2017,05,04,00,29,13.00
2017,05,04,00,30,13.00
2017,05,04,00,31,13.00
2017,05,04,00,32,13.10
2017,05,04,00,33,13.10
2017,05,04,00,34,13.10
2017,05,04,00,35,13.10
2017,05,04,00,36,13.10
2017,05,04,00,37,13.10
2017,05,04,00,38,13.10
2017,05,04,00,39,13.10
2017,05,04,00,40,13.10
2017,05,04,00,41,13.10
2017,05,04,00,42,13.10
2017,05,04,00,43,13.10
2017,05,04,00,44,13.10
2017,05,04,00,45,13.10
2017,05,04,00,46,13.20
2017,05,04,00,47,13.20
2017,05,04,00,48,13.20
2017,05,04,00,49,13.20
2017,05,04,00,50,13.20
2017,05,04,00,51,13.20
2017,05,04,00,52,13.20
2017,05,04,00,53,13.20
2017,05,04,00,54,13.20
2017,05,04,00,55,13.20
2017,05,04,00,56,13.20
2017,05,04,00,57,13.10
2017,05,04,00,58,13.10
2017,05,04,00,59,13.10
2017,05,04,01,00,13.10
2017,05,04,01,01,13.10
2017,05,04,01,02,13.10
2017,05,04,01,03,13.10
2017,05,04,01,04,13.10
2017,05,04,01,05,13.10
2017,05,04,01,06,13.10
2017,05,04,01,07,13.00
2017,05,04,01,08,13.00
2017,05,04,01,09,13.00
2017,05,04,01,10,13.00
2017,05,04,01,11,13.00
2017,05,04,01,12,12.90
2017,05,04,01,13,12.90
2017,05,04,01,14,12.90
2017,05,04,01,15,12.90
2017,05,04,01,16,12.90
2017,05,04,01,17,12.90
2017,05,04,01,18,12.90
2017,05,04,01,19,12.90
2017,05,04,01,20,12.90
2017,05,04,01,21,12.80
2017,05,04,01,22,12.80
2017,05,04,01,23,12.80
2017,05,04,01,24,12.80
2017,05,04,01,25,12.80
2017,05,04,01,26,12.80
2017,05,04,01,27,12.80
2017,05,04,01,28,12.80
2017,05,04,01,29,12.80
2017,05,04,01,30,12.80
2017,05,04,01,31,12.80
2017,05,04,01,32,12.80
2017,05,04,01,33,12.80
2017,05,04,01,34,12.80
2017,05,04,01,35,12.80
2017,05,04,01,36,12.80
2017,05,04,01,37,12.80
2017,05,04,01,38,12.80
2017,05,04,01,39,12.80
2017,05,04,01,40,12.80
2017,05,04,01,41,12.80
2017,05,04,01,42,12.80
2017,05,04,01,43,12.80
2017,05,04,01,44,12.80
2017,05,04,01,45,12.80
2017,05,04,01,46,12.80
2017,05,04,01,47,12.80
2017,05,04,01,48,12.80
2017,05,04,01,49,12.80
2017,05,04,01,50,12.80
2017,05,04,01,51,12.70
2017,05,04,01,52,12.70
2017,05,04,01,53,12.70
2017,05,04,01,54,12.70
2017,05,04,01,55,12.70
2017,05,04,01,56,12.70
2017,05,04,01,57,12.70
2017,05,04,01,58,12.70
2017,05,04,01,59,12.70
2017,05,04,02,00,12.70
2017,05,04,02,01,12.70
2017,05,04,02,02,12.70
2017,05,04,02,03,12.70
2017,05,04,02,04,12.70
2017,05,04,02,05,12.70
2017,05,04,02,06,12.60
2017,05,04,02,07,12.60
2017,05,04,02,08,12.60
2017,05,04,02,09,12.60
2017,05,04,02,10,12.60
2017,05,04,02,11,12.60
2017,05,04,02,12,12.60
2017,05,04,02,13,12.60
2017,05,04,02,14,12.60
2017,05,04,02,15,12.60
2017,05,04,02,16,12.60
2017,05,04,02,17,12.60
2017,05,04,02,18,12.60
2017,05,04,02,19,12.70
2017,05,04,02,20,12.70
2017,05,04,02,21,12.70
2017,05,04,02,22,12.70
2017,05,04,02,23,12.70
2017,05,04,02,24,12.70
2017,05,04,02,25,12.70
2017,05,04,02,26,12.70
2017,05,04,02,27,12.70
2017,05,04,02,28,12.70
2017,05,04,02,29,12.70
2017,05,04,02,30,12.60
2017,05,04,02,31,12.60
2017,05,04,02,32,12.60
2017,05,04,02,33,12.60
2017,05,04,02,34,12.60
2017,05,04,02,35,12.60
2017,05,04,02,36,12.60
2017,05,04,02,37,12.60
2017,05,04,02,38,12.60
2017,05,04,02,39,12.60
2017,05,04,02,40,12.60
2017,05,04,02,41,12.60
2017,05,04,02,42,12.60
2017,05,04,02,43,12.60
2017,05,04,02,44,12.60
2017,05,04,02,45,12.60
2017,05,04,02,46,12.60
2017,05,04,02,47,12.50
2017,05,04,02,48,12.50
2017,05,04,02,49,12.50
2017,05,04,02,50,12.50
2017,05,04,02,51,12.40
2017,05,04,02,52,12.40
2017,05,04,02,53,12.40
2017,05,04,02,54,12.40
2017,05,04,02,55,12.40
2017,05,04,02,56,12.40
2017,05,04,02,57,12.30
2017,05,04,02,58,12.30
2017,05,04,02,59,12.30
2017,05,04,03,00,12.30
2017,05,04,03,01,12.30
2017,05,04,03,02,12.30
2017,05,04,03,03,12.30
2017,05,04,03,04,12.30
2017,05,04,03,05,12.30
2017,05,04,03,06,12.30
2017,05,04,03,07,12.30
2017,05,04,03,08,12.30
2017,05,04,03,09,12.30
2017,05,04,03,10,12.30
2017,05,04,03,11,12.30
2017,05,04,03,12,12.30
2017,05,04,03,13,12.30
2017,05,04,03,14,12.30
2017,05,04,03,15,12.30
2017,05,04,03,16,12.30
2017,05,04,03,17,12.30
2017,05,04,03,18,12.40
2017,05,04,03,19,12.40
2017,05,04,03,20,12.40
2017,05,04,03,21,12.40
2017,05,04,03,22,12.40
2017,05,04,03,23,12.40
2017,05,04,03,24,12.40
2017,05,04,03,25,12.40
2017,05,04,03,26,12.40
2017,05,04,03,27,12.40
2017,05,04,03,28,12.40
2017,05,04,03,29,12.40
2017,05,04,03,30,12.50
2017,05,04,03,31,12.50
2017,05,04,03,32,12.50
2017,05,04,03,33,12.50
2017,05,04,03,34,12.50
2017,05,04,03,35,12.50
2017,05,04,03,36,12.50
2017,05,04,03,37,12.50
2017,05,04,03,38,12.50
2017,05,04,03,39,12.50
2017,05,04,03,40,12.50
2017,05,04,03,41,12.50
2017,05,04,03,42,12.50
2017,05,04,03,43,12.50
2017,05,04,03,44,12.50
2017,05,04,03,45,12.50
2017,05,04,03,46,12.50
2017,05,04,03,47,12.50
2017,05,04,03,48,12.50
2017,05,04,03,49,12.50
2017,05,04,03,50,12.50
2017,05,04,03,51,12.50
2017,05,04,03,52,12.40
2017,05,04,03,53,12.40
2017,05,04,03,54,12.50
2017,05,04,03,55,12.50
2017,05,04,03,56,12.40
2017,05,04,03,57,12.40
2017,05,04,03,58,12.40
2017,05,04,03,59,12.40
2017,05,04,04,00,12.40
2017,05,04,04,01,12.40
2017,05,04,04,02,12.40
2017,05,04,04,03,12.40
2017,05,04,05,04,11.80
2017,05,04,05,05,11.80
2017,05,04,05,06,11.80
2017,05,04,05,07,11.80
2017,05,04,05,08,11.80
2017,05,04,05,09,11.80
2017,05,04,05,10,11.80
2017,05,04,05,11,11.80
2017,05,04,05,12,11.80
2017,05,04,05,13,11.80
2017,05,04,05,14,11.80
2017,05,04,05,15,11.80
2017,05,04,05,16,11.80
2017,05,04,05,17,11.80
2017,05,04,05,18,11.80
2017,05,04,05,19,11.80
2017,05,04,05,20,11.90
2017,05,04,05,21,11.90
2017,05,04,05,22,11.90
2017,05,04,05,23,11.90
2017,05,04,05,24,11.90
2017,05,04,05,25,11.90
2017,05,04,05,26,12.00
2017,05,04,05,27,12.00
2017,05,04,05,28,12.00
2017,05,04,05,29,12.10
2017,05,04,05,30,12.10
2017,05,04,05,31,12.10
2017,05,04,05,32,12.10
2017,05,04,05,33,12.10
2017,05,04,05,34,12.10
2017,05,04,05,35,12.10
2017,05,04,05,36,12.10
2017,05,04,05,37,12.10
2017,05,04,05,38,12.10
2017,05,04,05,39,12.10
2017,05,04,05,40,12.10
2017,05,04,05,41,12.10
2017,05,04,05,42,12.10
2017,05,04,05,43,12.00
2017,05,04,05,44,12.00
2017,05,04,05,45,12.00
2017,05,04,05,46,12.00
2017,05,04,05,47,11.90
2017,05,04,05,48,11.90
2017,05,04,05,49,11.90
2017,05,04,05,50,11.90
2017,05,04,05,51,11.90
2017,05,04,05,52,11.90
2017,05,04,05,53,11.90
2017,05,04,05,54,11.90
2017,05,04,05,55,11.90
2017,05,04,05,56,11.80
2017,05,04,05,57,11.80
2017,05,04,05,58,11.80
2017,05,04,05,59,11.80
2017,05,04,06,00,11.80
2017,05,04,06,01,11.80
2017,05,04,06,02,11.80
2017,05,04,06,03,11.80
2017,05,04,06,04,11.80
2017,05,04,06,05,11.80
2017,05,04,06,06,11.80
2017,05,04,06,07,11.80
2017,05,04,06,08,11.80
2017,05,04,06,09,11.80
2017,05,04,06,10,11.80
2017,05,04,06,11,11.80
2017,05,04,06,12,11.80
2017,05,04,06,13,11.80
2017,05,04,06,14,11.80
2017,05,04,06,15,11.80
2017,05,04,06,16,11.70
2017,05,04,06,17,11.70
2017,05,04,06,18,11.70
2017,05,04,06,19,11.70
2017,05,04,06,20,11.60
2017,05,04,06,21,11.60
2017,05,04,06,22,11.60
2017,05,04,06,23,11.50
2017,05,04,06,24,11.50
2017,05,04,06,25,11.40
2017,05,04,06,26,11.40
2017,05,04,06,27,11.40
2017,05,04,06,28,11.40
2017,05,04,06,29,11.30
2017,05,04,06,30,11.30
2017,05,04,06,31,11.30
2017,05,04,06,32,11.30
2017,05,04,06,33,11.40
2017,05,04,06,34,11.40
2017,05,04,06,35,11.50
2017,05,04,06,36,11.50
2017,05,04,06,37,11.60
2017,05,04,06,38,11.60
2017,05,04,06,39,11.70
2017,05,04,06,40,11.70
2017,05,04,06,41,11.70
2017,05,04,06,42,11.70
2017,05,04,06,43,11.70
2017,05,04,06,44,11.70
2017,05,04,06,45,11.70
2017,05,04,06,46,11.70
2017,05,04,06,47,11.70
2017,05,04,06,48,11.70
2017,05,04,06,49,11.80
2017,05,04,06,50,11.80
2017,05,04,06,51,11.80
2017,05,04,06,52,11.80
2017,05,04,06,53,11.90
2017,05,04,06,54,11.90
2017,05,04,06,55,11.90
2017,05,04,06,56,12.00
2017,05,04,06,57,12.00
2017,05,04,06,58,12.10
2017,05,04,06,59,12.10
2017,05,04,07,00,12.10
2017,05,04,07,01,12.20
2017,05,04,07,02,12.20
2017,05,04,07,03,12.20
2017,05,04,07,04,12.20
2017,05,04,07,05,12.30
2017,05,04,07,06,12.30
2017,05,04,07,07,12.30
2017,05,04,07,08,12.40
2017,05,04,07,09,12.40
2017,05,04,07,10,12.40
2017,05,04,07,11,12.40
2017,05,04,07,12,12.40
2017,05,04,07,13,12.50
2017,05,04,07,14,12.50
2017,05,04,07,15,12.50
2017,05,04,07,16,12.50
2017,05,04,07,17,12.60
2017,05,04,07,18,12.60
2017,05,04,07,19,12.60
2017,05,04,07,20,12.60
2017,05,04,07,21,12.60
2017,05,04,07,22,12.60
2017,05,04,07,23,12.70
2017,05,04,07,24,12.70
2017,05,04,07,25,12.70
2017,05,04,07,26,12.70
2017,05,04,07,27,12.70
2017,05,04,07,28,12.80
2017,05,04,07,29,12.80
2017,05,04,07,30,12.80
2017,05,04,07,31,12.80
2017,05,04,07,32,12.90
2017,05,04,07,33,12.90
2017,05,04,07,34,12.90
2017,05,04,07,35,13.00
2017,05,04,07,36,13.00
2017,05,04,07,37,13.00
2017,05,04,07,38,13.10
2017,05,04,07,39,13.10
2017,05,04,07,40,13.10
2017,05,04,07,41,13.20
2017,05,04,07,42,13.20
2017,05,04,07,43,13.30
2017,05,04,07,44,13.30
2017,05,04,07,45,13.30
2017,05,04,07,46,13.30
2017,05,04,07,47,13.40
2017,05,04,07,48,13.40
2017,05,04,07,49,13.40
2017,05,04,07,50,13.40
2017,05,04,07,51,13.50
2017,05,04,07,52,13.50
2017,05,04,07,53,13.50
2017,05,04,07,54,13.60
2017,05,04,07,55,13.60
2017,05,04,07,56,13.60
2017,05,04,07,57,13.70
2017,05,04,07,58,13.70
2017,05,04,07,59,13.70
2017,05,04,08,00,13.70
2017,05,04,08,01,13.80
2017,05,04,08,02,13.80
2017,05,04,08,03,13.80
2017,05,04,08,04,13.90
2017,05,04,08,05,13.90
2017,05,04,08,06,13.90
2017,05,04,08,07,14.00
2017,05,04,08,08,14.00
2017,05,04,08,09,14.10
2017,05,04,08,10,14.10
2017,05,04,08,11,14.10
2017,05,04,08,12,14.10
2017,05,04,08,13,14.10
2017,05,04,08,14,14.10
2017,05,04,08,15,14.10
2017,05,04,08,16,14.10
2017,05,04,08,17,14.10
2017,05,04,08,18,14.10
2017,05,04,08,19,14.20
2017,05,04,08,20,14.20
2017,05,04,08,21,14.20
2017,05,04,08,22,14.30
2017,05,04,08,23,14.30
2017,05,04,08,24,14.30
2017,05,04,08,25,14.30
2017,05,04,08,26,14.30
2017,05,04,08,27,14.30
2017,05,04,08,28,14.40
2017,05,04,08,29,14.30
2017,05,04,08,30,14.30
2017,05,04,08,31,14.30
2017,05,04,08,32,14.30
2017,05,04,08,33,14.40
2017,05,04,08,34,14.40
2017,05,04,08,35,14.40
2017,05,04,08,36,14.40
2017,05,04,08,37,14.40
2017,05,04,08,38,14.40
2017,05,04,08,39,14.40
2017,05,04,08,40,14.40
2017,05,04,08,41,14.50
2017,05,04,08,42,14.50
2017,05,04,08,43,14.60
2017,05,04,08,44,14.60
2017,05,04,08,45,14.70
2017,05,04,08,46,14.70
2017,05,04,08,47,14.70
2017,05,04,08,48,14.70
2017,05,04,08,49,14.70
2017,05,04,08,50,14.80
2017,05,04,08,51,14.80
2017,05,04,08,52,14.80
2017,05,04,08,53,14.80
2017,05,04,08,54,14.80
2017,05,04,08,55,14.80
2017,05,04,08,56,14.90
2017,05,04,08,57,14.90
2017,05,04,08,58,14.90
2017,05,04,08,59,14.90
2017,05,04,09,00,14.90
2017,05,04,09,01,14.90
2017,05,04,09,02,14.90
2017,05,04,09,03,14.90
2017,05,04,09,04,14.90
2017,05,04,09,05,15.00
2017,05,04,09,06,15.00
2017,05,04,09,07,15.10
2017,05,04,09,08,15.10
2017,05,04,09,09,15.10
2017,05,04,09,10,15.10
2017,05,04,09,11,15.10
2017,05,04,09,12,15.10
2017,05,04,09,13,15.10
2017,05,04,09,14,15.10
2017,05,04,09,15,15.10
2017,05,04,09,16,15.10
2017,05,04,09,17,15.20
2017,05,04,09,18,15.20
2017,05,04,09,19,15.20
2017,05,04,09,20,15.20
2017,05,04,09,21,15.30
2017,05,04,09,22,15.20
2017,05,04,09,23,15.20
2017,05,04,09,24,15.30
2017,05,04,09,25,15.30
2017,05,04,09,26,15.20
2017,05,04,09,27,15.20
2017,05,04,09,28,15.20
2017,05,04,09,29,15.20
2017,05,04,09,30,15.30
2017,05,04,09,31,15.30
2017,05,04,09,32,15.30
2017,05,04,09,33,15.30
2017,05,04,09,34,15.40
2017,05,04,09,35,15.40
2017,05,04,09,36,15.40
2017,05,04,09,37,15.40
2017,05,04,09,38,15.40
2017,05,04,09,39,15.50
2017,05,04,09,40,15.50
2017,05,04,09,41,15.60
2017,05,04,09,42,15.60
2017,05,04,09,43,15.60
2017,05,04,09,44,15.60
2017,05,04,09,45,15.60
2017,05,04,09,46,15.60
2017,05,04,09,47,15.60
2017,05,04,09,48,15.60
2017,05,04,09,49,15.70
2017,05,04,09,50,15.70
2017,05,04,09,51,15.80
2017,05,04,09,52,15.80
2017,05,04,09,53,15.80
2017,05,04,09,54,15.80
2017,05,04,09,55,15.80
2017,05,04,09,56,15.80
2017,05,04,09,57,15.80
2017,05,04,09,58,15.80
2017,05,04,09,59,15.80
2017,05,04,10,00,15.80
2017,05,04,10,01,15.80
2017,05,04,10,02,15.80
2017,05,04,10,03,15.90
2017,05,04,10,04,15.90
2017,05,04,10,05,16.00
2017,05,04,10,06,16.00
2017,05,04,10,07,16.10
2017,05,04,10,08,16.10
2017,05,04,10,09,16.10
2017,05,04,10,10,16.20
2017,05,04,10,11,16.20
2017,05,04,10,12,16.30
2017,05,04,10,13,16.30
2017,05,04,10,14,16.30
2017,05,04,10,15,16.30
2017,05,04,10,16,16.30
2017,05,04,10,17,16.30
2017,05,04,10,18,16.30
2017,05,04,10,19,16.30
2017,05,04,10,20,16.30
2017,05,04,10,21,16.30
2017,05,04,10,22,16.30
2017,05,04,10,23,16.30
2017,05,04,10,24,16.30
2017,05,04,10,25,16.30
2017,05,04,10,26,16.30
2017,05,04,10,27,16.30
2017,05,04,10,28,16.30
2017,05,04,10,29,16.30
2017,05,04,10,30,16.40
2017,05,04,10,31,16.40
2017,05,04,10,32,16.40
2017,05,04,10,33,16.40
2017,05,04,10,34,16.40
2017,05,04,10,35,16.40
2017,05,04,10,36,16.40
2017,05,04,10,37,16.50
2017,05,04,10,38,16.60
2017,05,04,10,39,16.70
2017,05,04,10,40,16.70
2017,05,04,10,41,16.80
2017,05,04,10,42,16.90
2017,05,04,10,43,17.00
2017,05,04,10,44,17.10
2017,05,04,10,45,17.20
2017,05,04,10,46,17.20
2017,05,04,10,47,17.20
2017,05,04,10,48,17.20
2017,05,04,10,49,17.20
2017,05,04,10,50,17.30
2017,05,04,10,51,17.30
2017,05,04,10,52,17.30
2017,05,04,10,53,17.30
2017,05,04,10,54,17.40
2017,05,04,10,55,17.40
2017,05,04,10,56,17.50
2017,05,04,10,57,17.70
2017,05,04,10,58,17.70
2017,05,04,10,59,17.80
2017,05,04,11,00,17.80
2017,05,04,11,01,17.80
2017,05,04,11,02,17.80
2017,05,04,11,03,17.80
2017,05,04,11,04,17.80
2017,05,04,11,05,17.80
2017,05,04,11,06,17.80
2017,05,04,11,07,17.90
2017,05,04,11,08,17.90
2017,05,04,11,09,17.80
2017,05,04,11,10,17.80
2017,05,04,11,11,17.70
2017,05,04,11,12,17.80
2017,05,04,11,13,17.80
2017,05,04,11,14,17.70
2017,05,04,11,15,17.70
2017,05,04,11,16,17.70
2017,05,04,11,17,17.70
2017,05,04,11,18,17.70
2017,05,04,11,19,17.70
2017,05,04,11,20,17.70
2017,05,04,11,21,17.80
2017,05,04,11,22,17.90
2017,05,04,11,23,17.90
2017,05,04,11,24,17.90
2017,05,04,11,25,17.90
2017,05,04,11,26,17.90
2017,05,04,11,27,17.80
2017,05,04,11,28,17.80
2017,05,04,11,29,17.70
2017,05,04,11,30,17.70
2017,05,04,11,31,17.60
2017,05,04,11,32,17.60
2017,05,04,11,33,17.50
2017,05,04,11,34,17.60
2017,05,04,11,35,17.70
2017,05,04,11,36,17.80
2017,05,04,11,37,17.90
2017,05,04,11,38,17.90
2017,05,04,11,39,18.10
2017,05,04,11,40,18.20
2017,05,04,11,41,18.30
2017,05,04,11,42,18.30
2017,05,04,11,43,18.30
2017,05,04,11,44,18.30
2017,05,04,11,45,18.30
2017,05,04,11,46,18.40
2017,05,04,11,47,18.40
2017,05,04,11,48,18.50
2017,05,04,11,49,18.60
2017,05,04,11,50,18.70
2017,05,04,11,51,18.90
2017,05,04,11,52,19.00
2017,05,04,11,53,19.10
2017,05,04,11,54,19.20
2017,05,04,11,55,19.20
2017,05,04,11,56,19.30
2017,05,04,11,57,19.40
2017,05,04,11,58,19.40
2017,05,04,11,59,19.50
2017,05,04,12,00,19.60
2017,05,04,12,01,19.60
2017,05,04,12,02,19.70
2017,05,04,12,03,19.70
2017,05,04,12,04,19.60
2017,05,04,12,05,19.60
2017,05,04,12,06,19.50
2017,05,04,12,07,19.60
2017,05,04,12,08,19.60
2017,05,04,12,09,19.60
2017,05,04,12,10,19.60
2017,05,04,12,11,19.60
2017,05,04,12,12,19.60
2017,05,04,12,13,19.60
2017,05,04,12,14,19.70
2017,05,04,12,15,19.70
2017,05,04,12,16,19.70
2017,05,04,12,17,19.70
2017,05,04,12,18,19.70
2017,05,04,12,19,19.70
2017,05,04,12,20,19.70
2017,05,04,12,21,19.70
2017,05,04,12,22,19.70
2017,05,04,12,23,19.70
2017,05,04,12,24,19.70
2017,05,04,12,25,19.70
2017,05,04,12,26,19.70
2017,05,04,12,27,19.60
2017,05,04,12,28,19.60
2017,05,04,12,29,19.60
2017,05,04,12,30,19.60
2017,05,04,12,31,19.60
2017,05,04,12,32,19.70
2017,05,04,12,33,19.70
2017,05,04,12,34,19.70
2017,05,04,12,35,19.70
2017,05,04,12,36,19.70
2017,05,04,12,37,19.70
2017,05,04,12,38,19.70
2017,05,04,12,39,19.70
2017,05,04,12,40,19.80
2017,05,04,12,41,19.90
2017,05,04,12,42,20.00
2017,05,04,12,43,20.10
2017,05,04,12,44,20.20
2017,05,04,12,45,20.20
2017,05,04,12,46,20.20
2017,05,04,12,47,20.20
2017,05,04,12,48,20.30
2017,05,04,12,49,20.30
2017,05,04,12,50,20.30
2017,05,04,12,51,20.40
2017,05,04,12,52,20.40
2017,05,04,12,53,20.50
2017,05,04,12,54,20.50
2017,05,04,12,55,20.60
2017,05,04,12,56,20.60
2017,05,04,12,57,20.60
2017,05,04,12,58,20.60
2017,05,04,12,59,20.70
2017,05,04,13,00,20.70
2017,05,04,13,01,20.60
2017,05,04,13,02,20.60
2017,05,04,13,03,20.40
2017,05,04,13,04,20.30
2017,05,04,13,05,20.30
2017,05,04,13,06,20.30
2017,05,04,13,07,20.30
2017,05,04,13,08,20.30
2017,05,04,13,09,20.30
2017,05,04,13,10,20.40
2017,05,04,13,11,20.40
2017,05,04,13,12,20.50
2017,05,04,13,13,20.60
2017,05,04,13,14,20.60
2017,05,04,13,15,20.70
2017,05,04,13,16,20.70
2017,05,04,13,17,20.80
2017,05,04,13,18,21.00
2017,05,04,13,19,21.10
2017,05,04,13,20,21.30
2017,05,04,13,21,21.40
2017,05,04,13,22,21.40
2017,05,04,13,23,21.50
2017,05,04,13,24,21.60
2017,05,04,13,25,21.60
2017,05,04,13,26,21.60
2017,05,04,13,27,21.60
2017,05,04,13,28,21.50
2017,05,04,13,29,21.50
2017,05,04,13,30,21.40
2017,05,04,13,31,21.40
2017,05,04,13,32,21.40
2017,05,04,13,33,21.40
2017,05,04,13,34,21.40
2017,05,04,13,35,21.30
2017,05,04,13,36,21.30
2017,05,04,13,37,21.40
2017,05,04,13,38,21.40
2017,05,04,13,39,21.50
2017,05,04,13,40,21.50
2017,05,04,13,41,21.60
2017,05,04,13,42,21.60
2017,05,04,13,43,21.60
2017,05,04,13,44,21.60
2017,05,04,13,45,21.70
2017,05,04,13,46,21.70
2017,05,04,13,47,21.70
2017,05,04,13,48,21.70
2017,05,04,13,49,21.70
2017,05,04,13,50,21.80
2017,05,04,13,51,21.80
2017,05,04,13,52,21.90
2017,05,04,13,53,21.90
2017,05,04,13,54,22.00
2017,05,04,13,55,22.00
2017,05,04,13,56,22.00
2017,05,04,13,57,22.00
2017,05,04,13,58,22.00
2017,05,04,13,59,22.00
2017,05,04,14,00,22.10
2017,05,04,14,01,22.20
2017,05,04,14,02,22.30
2017,05,04,14,03,22.40
2017,05,04,14,04,22.50
2017,05,04,14,05,22.50
2017,05,04,14,06,22.60
2017,05,04,14,07,22.60
2017,05,04,14,08,22.60
2017,05,04,14,09,22.60
2017,05,04,14,10,22.60
2017,05,04,14,11,22.60
2017,05,04,14,12,22.60
2017,05,04,14,13,22.70
2017,05,04,14,14,22.70
2017,05,04,14,15,22.70
2017,05,04,14,16,22.70
2017,05,04,14,17,22.70
2017,05,04,14,18,22.80
2017,05,04,14,19,22.80
2017,05,04,14,20,22.80
2017,05,04,14,21,22.70
2017,05,04,14,22,22.60
2017,05,04,14,23,22.60
2017,05,04,14,24,22.50
2017,05,04,14,25,22.50
2017,05,04,14,26,22.50
2017,05,04,14,27,22.50
2017,05,04,14,28,22.60
2017,05,04,14,29,22.50
2017,05,04,14,30,22.40
2017,05,04,14,31,22.40
2017,05,04,14,32,22.40
2017,05,04,14,33,22.40
2017,05,04,14,34,22.50
2017,05,04,14,35,22.60
2017,05,04,14,36,22.70
2017,05,04,14,37,22.80
2017,05,04,14,38,22.80
2017,05,04,14,39,22.90
2017,05,04,14,40,22.90
2017,05,04,14,41,22.90
2017,05,04,14,42,23.00
2017,05,04,14,43,23.00
2017,05,04,14,44,23.00
2017,05,04,14,45,23.00
2017,05,04,14,46,22.90
2017,05,04,14,47,22.90
2017,05,04,14,48,22.90
2017,05,04,14,49,22.90
2017,05,04,14,50,22.90
2017,05,04,14,51,22.90
2017,05,04,14,52,23.00
2017,05,04,14,53,23.10
2017,05,04,14,54,23.10
2017,05,04,14,55,23.20
2017,05,04,14,56,23.30
2017,05,04,14,57,23.30
2017,05,04,14,58,23.40
2017,05,04,14,59,23.40
2017,05,04,15,00,23.50
2017,05,04,15,01,23.50
2017,05,04,15,02,23.50
2017,05,04,15,03,23.50
2017,05,04,15,04,23.40
2017,05,04,15,05,23.40
2017,05,04,15,06,23.40
2017,05,04,15,07,23.40
2017,05,04,15,08,23.30
2017,05,04,15,09,23.30
2017,05,04,15,10,23.30
2017,05,04,15,11,23.30
2017,05,04,15,12,23.30
2017,05,04,15,13,23.30
2017,05,04,15,14,23.30
2017,05,04,15,15,23.30
2017,05,04,15,16,23.40
2017,05,04,15,17,23.40
2017,05,04,15,18,23.30
2017,05,04,15,19,23.30
2017,05,04,15,20,23.20
2017,05,04,15,21,23.00
2017,05,04,15,22,22.90
2017,05,04,15,23,22.90
2017,05,04,15,24,22.90
2017,05,04,15,25,23.00
2017,05,04,15,26,23.10
2017,05,04,15,27,23.20
2017,05,04,15,28,23.30
2017,05,04,15,29,23.40
2017,05,04,15,30,23.50
2017,05,04,15,31,23.50
2017,05,04,15,32,23.50
2017,05,04,15,33,23.50
2017,05,04,15,34,23.50
2017,05,04,15,35,23.50
2017,05,04,15,36,23.50
2017,05,04,15,37,23.50
2017,05,04,15,38,23.50
2017,05,04,15,39,23.50
2017,05,04,15,40,23.50
2017,05,04,15,41,23.60
2017,05,04,15,42,23.70
2017,05,04,15,43,23.70
2017,05,04,15,44,23.80
2017,05,04,15,45,23.90
2017,05,04,15,46,23.90
2017,05,04,15,47,23.80
2017,05,04,15,48,23.80
2017,05,04,15,49,23.80
2017,05,04,15,50,23.80
2017,05,04,15,51,23.90
2017,05,04,15,52,23.90
2017,05,04,15,53,24.00
2017,05,04,15,54,24.00
2017,05,04,15,55,24.10
2017,05,04,15,56,24.10
2017,05,04,15,57,24.20
2017,05,04,15,58,24.20
2017,05,04,15,59,24.20
2017,05,04,16,00,24.30
2017,05,04,16,01,24.30
2017,05,04,16,02,24.30
2017,05,04,16,03,24.40
2017,05,04,16,04,24.40
2017,05,04,16,05,24.40
2017,05,04,16,06,24.40
2017,05,04,16,07,24.40
2017,05,04,16,08,24.30
2017,05,04,16,09,24.30
2017,05,04,16,10,24.20
2017,05,04,16,11,24.20
2017,05,04,16,12,24.20
2017,05,04,16,13,24.20
2017,05,04,16,14,24.20
2017,05,04,16,15,24.20
2017,05,04,16,16,24.20
2017,05,04,16,17,24.20
2017,05,04,16,18,24.20
2017,05,04,16,19,24.10
2017,05,04,16,20,24.00
2017,05,04,16,21,23.90
2017,05,04,16,22,23.80
2017,05,04,16,23,23.70
2017,05,04,16,24,23.70
2017,05,04,16,25,23.60
2017,05,04,16,26,23.60
2017,05,04,16,27,23.60
2017,05,04,16,28,23.60
2017,05,04,16,29,23.60
2017,05,04,16,30,23.50
2017,05,04,16,31,23.40
2017,05,04,16,32,23.30
2017,05,04,16,33,23.30
2017,05,04,16,34,23.20
2017,05,04,16,35,23.10
2017,05,04,16,36,23.10
2017,05,04,16,37,23.10
2017,05,04,16,38,23.00
2017,05,04,16,39,23.00
2017,05,04,16,40,22.90
2017,05,04,16,41,22.90
2017,05,04,16,42,22.80
2017,05,04,16,43,22.80
2017,05,04,16,44,22.70
2017,05,04,16,45,22.70
2017,05,04,16,46,22.60
2017,05,04,16,47,22.50
2017,05,04,16,48,22.40
2017,05,04,16,49,22.40
2017,05,04,16,50,22.30
2017,05,04,16,51,22.20
2017,05,04,16,52,22.10
2017,05,04,16,53,22.00
2017,05,04,16,54,21.80
2017,05,04,16,55,21.70
2017,05,04,16,56,21.60
2017,05,04,16,57,21.50
2017,05,04,16,58,21.40
2017,05,04,16,59,21.30
2017,05,04,17,00,21.20
2017,05,04,17,01,21.10
2017,05,04,17,02,21.00
2017,05,04,17,03,20.90
2017,05,04,17,04,20.80
2017,05,04,17,05,20.80
2017,05,04,17,06,20.70
2017,05,04,17,07,20.70
2017,05,04,17,08,20.70
2017,05,04,17,09,20.70
2017,05,04,17,10,20.70
2017,05,04,17,11,20.70
2017,05,04,17,12,20.70
2017,05,04,17,13,20.70
2017,05,04,17,14,20.70
2017,05,04,17,15,20.60
2017,05,04,17,16,20.60
2017,05,04,17,17,20.60
2017,05,04,17,18,20.60
2017,05,04,17,19,20.50
2017,05,04,17,20,20.40
2017,05,04,17,21,20.40
2017,05,04,17,22,20.30
2017,05,04,17,23,20.20
2017,05,04,17,24,20.10
2017,05,04,17,25,20.00
2017,05,04,17,26,19.90
2017,05,04,17,27,19.80
2017,05,04,17,28,19.70
2017,05,04,17,29,19.70
2017,05,04,17,30,19.60
2017,05,04,17,31,19.60
2017,05,04,17,32,19.50
2017,05,04,17,33,19.50
2017,05,04,17,34,19.50
2017,05,04,17,35,19.40
2017,05,04,17,36,19.40
2017,05,04,17,37,19.30
2017,05,04,17,38,19.20
2017,05,04,17,39,19.20
2017,05,04,17,40,19.20
2017,05,04,17,41,19.10
2017,05,04,17,42,19.10
2017,05,04,17,43,19.10
2017,05,04,17,44,19.00
2017,05,04,17,45,19.00
2017,05,04,17,46,18.90
2017,05,04,17,47,18.90
2017,05,04,17,48,18.80
2017,05,04,17,49,18.80
2017,05,04,17,50,18.70
2017,05,04,17,51,18.60
2017,05,04,17,52,18.50
2017,05,04,17,53,18.40
2017,05,04,17,54,18.30
2017,05,04,17,55,18.20
2017,05,04,17,56,18.10
2017,05,04,17,57,18.00
2017,05,04,17,58,17.90
2017,05,04,17,59,17.70
2017,05,04,18,00,17.60
2017,05,04,18,01,17.50
2017,05,04,18,02,17.40
2017,05,04,18,03,17.30
2017,05,04,18,04,17.20
2017,05,04,18,05,17.10
2017,05,04,18,06,17.00
2017,05,04,18,07,17.00
2017,05,04,18,08,16.90
2017,05,04,18,09,16.90
2017,05,04,18,10,16.90
2017,05,04,18,11,16.80
2017,05,04,18,12,16.80
2017,05,04,18,13,16.80
2017,05,04,18,14,16.80
2017,05,04,18,15,16.80
2017,05,04,18,16,16.70
2017,05,04,18,17,16.70
2017,05,04,18,18,16.60
2017,05,04,18,19,16.60